M I D A S
Marine Information and Data Acquisition System
Tripno 2321 of the Zeeleeuw from 2012-05-31 04:54:38 to 2012-05-31 15:54:25
Back to CruiseResearch ActivitiesStationsMapUnderway DataData graphs

EquipmentUnitsComments
TimeDGPSUTC
LatitudeDGPSDM.mWGS84
LongitudeDGPSDM.mWGS84
SpeedMeteo Stationm/sRelative wind speed
DirectionMeteo StationdegRelative wind direction
TemperatureMeteo Stationdeg CelciusAir temperature
PressureMeteo StationPaAtmospheric pressure
HumidityMeteo Station%Relative humidity
Missing or incorrect values are displayed as -999
Metereological data collected by the RV Zeeleeuw from 2012-05-31 04:37:31 to 2012-05-31 16:00:00
                                                                                    Next 1000 lines
Time Latitude Longitude Speed Direction Temperature Pressure Humidity
2012-05-31 04:37:41 51°13.635 2°56.013 0.1 30 13.2 101810 37
2012-05-31 04:37:46 51°13.635 2°56.01 0.1 20 13.2 101810 37
2012-05-31 04:37:51 51°13.635 2°56.007 0.1 35 13.2 101810 37
2012-05-31 04:37:55 51°13.636 2°56.003 0.1 23 13.2 101820 37
2012-05-31 04:38:00 51°13.637 2°55.998 6.3 35 13.2 101820 37
2012-05-31 04:38:06 51°13.638 2°55.991 6.9 26 13.2 101820 37
2012-05-31 04:38:11 51°13.64 2°55.984 3.8 34 13.2 101820 37
2012-05-31 04:38:15 51°13.641 2°55.978 0.9 45 13.2 101820 37
2012-05-31 04:38:21 51°13.643 2°55.969 4.1 37 13.2 101820 37
2012-05-31 04:38:26 51°13.644 2°55.961 4.2 27 13.2 101820 38
2012-05-31 04:38:31 51°13.646 2°55.953 0.1 35 13.2 101820 38
2012-05-31 04:38:35 51°13.647 2°55.947 0.1 45 13.2 101820 38
2012-05-31 04:38:41 51°13.649 2°55.938 5.4 33 13.2 101820 38
2012-05-31 04:38:46 51°13.65 2°55.93 5.6 28 13.2 101820 37
2012-05-31 04:38:51 51°13.652 2°55.922 3.1 37 13.2 101820 37
2012-05-31 04:38:55 51°13.653 2°55.915 3.9 21 13.2 101820 37
2012-05-31 04:39:01 51°13.655 2°55.906 0.1 35 13.2 101820 37
2012-05-31 04:39:06 51°13.656 2°55.898 0.1 23 13.2 101820 37
2012-05-31 04:39:11 51°13.658 2°55.89 -999 44 13.2 101820 37
2012-05-31 04:39:15 51°13.659 2°55.884 -999 24 13.2 101820 37
2012-05-31 04:39:21 51°13.662 2°55.875 -999 35 13.2 101820 37
2012-05-31 04:39:26 51°13.664 2°55.867 -999 39 13.2 101820 37
2012-05-31 04:39:31 51°13.666 2°55.86 -999 33 13.2 101820 37
2012-05-31 04:39:35 51°13.668 2°55.853 -999 42 13.2 101820 37
2012-05-31 04:39:41 51°13.672 2°55.843 -999 35 13.2 101820 37
2012-05-31 04:39:46 51°13.674 2°55.834 -999 40 13.2 101820 37
2012-05-31 04:39:51 51°13.677 2°55.826 -999 35 13.2 101820 37
2012-05-31 04:39:55 51°13.68 2°55.819 -999 24 13.2 101810 36
2012-05-31 04:40:01 51°13.684 2°55.809 -999 40 13.2 101810 36
2012-05-31 04:40:06 51°13.688 2°55.801 -999 40 13.2 101810 37
2012-05-31 04:40:11 51°13.692 2°55.793 -999 35 13.2 101810 37
2012-05-31 04:40:15 51°13.695 2°55.786 -999 42 13.2 101820 37
2012-05-31 04:40:21 51°13.7 2°55.776 -999 39 13.2 101820 37
2012-05-31 04:40:26 51°13.705 2°55.768 -999 36 13.2 101810 37
2012-05-31 04:40:31 51°13.71 2°55.76 -999 43 13.2 101810 37
2012-05-31 04:40:35 51°13.713 2°55.754 -999 24 13.2 101820 37
2012-05-31 04:40:41 51°13.719 2°55.744 -999 43 13.2 101820 37
2012-05-31 04:40:46 51°13.724 2°55.737 -999 40 13.2 101810 37
2012-05-31 04:40:51 51°13.73 2°55.729 -999 35 13.2 101810 37
2012-05-31 04:40:55 51°13.734 2°55.723 -999 24 13.2 101810 37
2012-05-31 04:41:01 51°13.74 2°55.715 -999 34 13.2 101810 37
2012-05-31 04:41:06 51°13.745 2°55.708 -999 30 13.2 101810 37
2012-05-31 04:41:11 51°13.751 2°55.701 -999 35 13.2 101810 37
2012-05-31 04:41:15 51°13.755 2°55.695 -999 43 13.2 101810 37
2012-05-31 04:41:21 51°13.762 2°55.686 -999 42 13.2 101810 37
2012-05-31 04:41:26 51°13.768 2°55.68 -999 44 13.2 101810 37
2012-05-31 04:41:31 51°13.774 2°55.673 -999 54 13.2 101810 37
2012-05-31 04:41:35 51°13.778 2°55.668 -999 29 13.2 101810 37
2012-05-31 04:41:41 51°13.786 2°55.661 -999 33 13.2 101810 37
2012-05-31 04:41:46 51°13.792 2°55.655 -999 31 13.2 101810 37
2012-05-31 04:41:51 51°13.798 2°55.649 -999 35 13.2 101810 37
2012-05-31 04:41:56 51°13.803 2°55.644 -999 24 13.2 101810 37
2012-05-31 04:42:01 51°13.809 2°55.638 -999 35 13.2 101810 37
2012-05-31 04:42:06 51°13.815 2°55.633 -999 45 13.2 101810 37
2012-05-31 04:42:11 51°13.821 2°55.629 -999 19 13.2 101810 37
2012-05-31 04:42:15 51°13.826 2°55.625 -999 24 13.1 101820 37
2012-05-31 04:42:21 51°13.833 2°55.62 -999 54 13.1 101820 37
2012-05-31 04:42:26 51°13.839 2°55.616 -999 32 13.1 101820 37
2012-05-31 04:42:31 51°13.845 2°55.612 -999 27 13.1 101820 37
2012-05-31 04:42:35 51°13.849 2°55.61 -999 21 13.1 101820 36
2012-05-31 04:42:41 51°13.856 2°55.606 -999 55 13.1 101820 36
2012-05-31 04:42:45 51°13.86 2°55.604 -999 30 13.1 101820 37
2012-05-31 04:42:51 51°13.867 2°55.601 -999 25 13.1 101820 37
2012-05-31 04:42:55 51°13.872 2°55.6 -999 29 13.1 101820 37
2012-05-31 04:43:01 51°13.878 2°55.599 -999 23 13.1 101820 37
2012-05-31 04:43:06 51°13.884 2°55.598 4 20 13.1 101820 37
2012-05-31 04:43:11 51°13.89 2°55.598 1.6 21 13.1 101820 37
2012-05-31 04:43:15 51°13.894 2°55.598 1.8 22 13.1 101820 37
2012-05-31 04:43:21 51°13.901 2°55.597 0.1 25 13.1 101820 37
2012-05-31 04:43:26 51°13.907 2°55.597 0.1 21 13.1 101810 37
2012-05-31 04:43:31 51°13.912 2°55.598 0.1 14 13.1 101810 37
2012-05-31 04:43:36 51°13.917 2°55.6 0.1 -999 13.1 101820 37
2012-05-31 04:43:41 51°13.922 2°55.602 0.1 17 13.1 101820 37
2012-05-31 04:43:46 51°13.926 2°55.603 -999 27 13.1 101820 37
2012-05-31 04:43:51 51°13.931 2°55.605 -999 2 13.1 101820 37
2012-05-31 04:43:56 51°13.936 2°55.607 -999 18 13.1 101810 37
2012-05-31 04:44:01 51°13.94 2°55.61 -999 2 13.1 101810 37
2012-05-31 04:44:06 51°13.945 2°55.612 -999 358 13.1 101810 37
2012-05-31 04:44:11 51°13.949 2°55.614 -999 341 13.1 101810 37
2012-05-31 04:44:15 51°13.952 2°55.616 -999 338 13.1 101820 37
2012-05-31 04:44:21 51°13.956 2°55.62 -999 3 13.1 101820 37
2012-05-31 04:44:26 51°13.96 2°55.623 -999 344 13.1 101810 37
2012-05-31 04:44:31 51°13.964 2°55.626 -999 348 13.1 101810 37
2012-05-31 04:44:35 51°13.966 2°55.628 -999 357 13.1 101810 37
2012-05-31 04:44:40 51°13.969 2°55.631 -999 336 13.1 101810 37
2012-05-31 04:44:46 51°13.973 2°55.635 -999 341 13.1 101810 37
2012-05-31 04:44:51 51°13.976 2°55.637 0.4 323 13.1 101810 37
2012-05-31 04:44:55 51°13.977 2°55.639 0.3 351 13.1 101810 37
2012-05-31 04:45:01 51°13.979 2°55.642 0.1 328 13.1 101810 37
2012-05-31 04:45:06 51°13.98 2°55.643 0.2 347 13.1 101820 37
2012-05-31 04:45:11 51°13.981 2°55.643 0.2 349 13.1 101820 37
2012-05-31 04:45:15 51°13.981 2°55.643 0.1 344 13.1 101810 36
2012-05-31 04:45:21 51°13.981 2°55.642 0.1 323 13.1 101810 36
2012-05-31 04:45:26 51°13.981 2°55.64 -999 325 13.1 101810 37
2012-05-31 04:45:31 51°13.981 2°55.638 -999 305 13.1 101810 37
2012-05-31 04:45:35 51°13.981 2°55.636 -999 315 13.1 101810 37
2012-05-31 04:45:41 51°13.981 2°55.632 -999 306 13.1 101810 37
2012-05-31 04:45:46 51°13.982 2°55.627 -999 24 13.1 101810 37
2012-05-31 04:45:51 51°13.982 2°55.623 -999 326 13.1 101810 37
2012-05-31 04:45:55 51°13.983 2°55.619 -999 326 13.1 101810 37
2012-05-31 04:46:01 51°13.985 2°55.612 -999 306 13.1 101810 37
2012-05-31 04:46:06 51°13.986 2°55.606 -999 24 13.1 101810 37
2012-05-31 04:46:11 51°13.989 2°55.6 -999 306 13.1 101810 37
2012-05-31 04:46:15 51°13.991 2°55.595 -999 24 13.1 101810 37
2012-05-31 04:46:21 51°13.995 2°55.587 -999 305 13.1 101810 37
2012-05-31 04:46:26 51°13.999 2°55.581 -999 24 13.1 101810 37
2012-05-31 04:46:31 51°14.004 2°55.573 -999 306 13.1 101810 37
2012-05-31 04:46:35 51°14.008 2°55.568 -999 24 13.1 101810 37
2012-05-31 04:46:41 51°14.015 2°55.56 -999 306 13.1 101810 37
2012-05-31 04:46:46 51°14.022 2°55.552 -999 252 13.1 101810 37
2012-05-31 04:46:51 51°14.028 2°55.544 -999 306 13.1 101810 37
2012-05-31 04:46:55 51°14.033 2°55.537 -999 24 13 101800 37
2012-05-31 04:47:01 51°14.042 2°55.527 -999 306 13 101800 37
2012-05-31 04:47:06 51°14.049 2°55.519 -999 250 13 101810 37
2012-05-31 04:47:11 51°14.057 2°55.511 -999 306 13 101810 37
2012-05-31 04:47:15 51°14.063 2°55.504 -999 24 13 101810 37
2012-05-31 04:47:21 51°14.073 2°55.494 -999 305 13 101810 37
2012-05-31 04:47:26 51°14.081 2°55.486 -999 24 13 101810 37
2012-05-31 04:47:31 51°14.089 2°55.477 -999 306 13 101810 37
2012-05-31 04:47:35 51°14.096 2°55.47 -999 24 13 101810 37
2012-05-31 04:47:41 51°14.106 2°55.46 -999 305 13 101810 37
2012-05-31 04:47:46 51°14.114 2°55.451 -999 324 13 101810 37
2012-05-31 04:47:51 51°14.123 2°55.443 -999 306 13 101810 37
2012-05-31 04:47:55 51°14.13 2°55.435 -999 316 13 101810 36
2012-05-31 04:48:01 51°14.141 2°55.424 -999 326 13 101810 36
2012-05-31 04:48:06 51°14.15 2°55.415 -999 321 13 101810 37
2012-05-31 04:48:11 51°14.16 2°55.406 -999 305 13 101810 37
2012-05-31 04:48:16 51°14.169 2°55.396 -999 24 13 101810 37
2012-05-31 04:48:21 51°14.179 2°55.386 -999 306 13 101810 37
2012-05-31 04:48:26 51°14.189 2°55.377 -999 24 13 101810 37
2012-05-31 04:48:31 51°14.199 2°55.368 -999 306 13 101810 37
2012-05-31 04:48:35 51°14.207 2°55.36 -999 24 13 101810 37
2012-05-31 04:48:41 51°14.219 2°55.349 -999 306 13 101810 37
2012-05-31 04:48:46 51°14.23 2°55.339 -999 24 13 101800 37
2012-05-31 04:48:51 51°14.241 2°55.33 -999 306 13 101800 37
2012-05-31 04:48:55 51°14.249 2°55.322 -999 24 13 101810 37
2012-05-31 04:49:01 51°14.262 2°55.311 8.3 303 13 101810 37
2012-05-31 04:49:06 51°14.272 2°55.301 8.7 22 13 101810 37
2012-05-31 04:49:11 51°14.282 2°55.29 10 309 13 101810 37
2012-05-31 04:49:15 51°14.291 2°55.282 11.7 25 13 101810 38
2012-05-31 04:49:21 51°14.303 2°55.27 9.8 306 13 101810 38
2012-05-31 04:49:26 51°14.314 2°55.26 11.5 24 13 101800 37
2012-05-31 04:49:31 51°14.325 2°55.25 11.4 310 13 101800 37
2012-05-31 04:49:35 51°14.334 2°55.242 7.9 27 13 101800 38
2012-05-31 04:49:41 51°14.347 2°55.23 10.6 303 13 101800 38
2012-05-31 04:49:46 51°14.358 2°55.219 8.8 26 13 101790 38
2012-05-31 04:49:51 51°14.369 2°55.209 8.4 303 13 101790 38
2012-05-31 04:49:55 51°14.378 2°55.201 9.5 23 13 101800 38
2012-05-31 04:50:01 51°14.391 2°55.188 9.3 309 13 101800 38
2012-05-31 04:50:06 51°14.403 2°55.178 11 27 13 101790 37
2012-05-31 04:50:11 51°14.415 2°55.168 10 306 13 101790 37
2012-05-31 04:50:15 51°14.425 2°55.16 9.4 23 13 101780 37
2012-05-31 04:50:21 51°14.439 2°55.147 13 309 13 101780 37
2012-05-31 04:50:26 51°14.451 2°55.136 9.4 18 13 101780 37
2012-05-31 04:50:31 51°14.463 2°55.126 9.4 306 13 101780 37
2012-05-31 04:50:36 51°14.476 2°55.115 8.5 21 13 101790 35
2012-05-31 04:50:40 51°14.486 2°55.107 8.7 302 13 101790 35
2012-05-31 04:50:46 51°14.501 2°55.094 7.3 28 13 101790 38
2012-05-31 04:50:51 51°14.513 2°55.082 9 307 13 101790 38
2012-05-31 04:50:55 51°14.522 2°55.073 10.1 26 13 101790 38
2012-05-31 04:51:00 51°14.534 2°55.061 12.4 304 13 101790 38
2012-05-31 04:51:05 51°14.545 2°55.047 10.5 22 13 101800 37
2012-05-31 04:51:10 51°14.556 2°55.032 10.9 308 13 101800 37
2012-05-31 04:51:15 51°14.568 2°55.018 9.2 27 13 101790 38
2012-05-31 04:51:20 51°14.579 2°55.004 11 310 13 101790 38
2012-05-31 04:51:25 51°14.591 2°54.99 11.6 20 13 101790 37
2012-05-31 04:51:30 51°14.604 2°54.976 9 307 13 101790 37
2012-05-31 04:51:35 51°14.617 2°54.961 10.5 23 13 101790 37
2012-05-31 04:51:39 51°14.627 2°54.949 8.7 305 13 101790 37
2012-05-31 04:51:45 51°14.641 2°54.931 11.8 21 13 101780 37
2012-05-31 04:51:50 51°14.654 2°54.916 9.4 304 13 101780 37
2012-05-31 04:51:55 51°14.667 2°54.9 12.2 19 13 101790 38
2012-05-31 04:51:59 51°14.678 2°54.889 8.8 302 13 101790 38
2012-05-31 04:52:04 51°14.69 2°54.874 11.3 28 13 101790 37
2012-05-31 04:52:10 51°14.706 2°54.855 10.3 307 13 101790 37
2012-05-31 04:52:14 51°14.716 2°54.842 12.9 24 12.9 101790 37
2012-05-31 04:52:19 51°14.728 2°54.825 8.7 301 12.9 101790 37
2012-05-31 04:52:24 51°14.741 2°54.809 9.6 29 13 101780 38
2012-05-31 04:52:29 51°14.754 2°54.793 11 305 13 101780 38
2012-05-31 04:52:35 51°14.77 2°54.774 12.7 27 12.9 101780 37
2012-05-31 04:52:41 51°14.785 2°54.756 13.1 309 12.9 101780 37
2012-05-31 04:52:46 51°14.799 2°54.741 14 20 13 101780 38
2012-05-31 04:52:51 51°14.812 2°54.726 12.8 305 13 101780 38
2012-05-31 04:52:56 51°14.825 2°54.711 9.7 28 13 101780 37
2012-05-31 04:53:01 51°14.838 2°54.695 11.6 309 13 101780 37
2012-05-31 04:53:06 51°14.851 2°54.68 13.1 21 13 101780 37
2012-05-31 04:53:11 51°14.864 2°54.666 12.6 305 13 101780 37
2012-05-31 04:53:15 51°14.875 2°54.654 10.9 28 13 101780 36
2012-05-31 04:53:21 51°14.891 2°54.638 11.1 302 13 101780 36
2012-05-31 04:53:26 51°14.905 2°54.624 11.4 21 12.9 101780 37
2012-05-31 04:53:31 51°14.919 2°54.609 12.3 301 12.9 101780 37
2012-05-31 04:53:35 51°14.929 2°54.597 10.6 24 12.9 101780 38
2012-05-31 04:53:41 51°14.945 2°54.58 12.3 307 12.9 101780 38
2012-05-31 04:53:46 51°14.958 2°54.566 13.7 19 12.9 101790 38
2012-05-31 04:53:51 51°14.971 2°54.551 12.7 310 12.9 101790 38
2012-05-31 04:53:55 51°14.981 2°54.538 9.5 26 12.9 101770 38
2012-05-31 04:54:01 51°14.996 2°54.519 10 304 12.9 101770 38
2012-05-31 04:54:06 51°15.008 2°54.503 11.2 24 12.9 101780 37
2012-05-31 04:54:11 51°15.02 2°54.486 10.4 303 12.9 101780 37
2012-05-31 04:54:15 51°15.03 2°54.472 9 28 12.9 101780 38
2012-05-31 04:54:21 51°15.045 2°54.452 10 305 12.9 101780 38
2012-05-31 04:54:26 51°15.057 2°54.436 11 28 12.9 101790 38
2012-05-31 04:54:31 51°15.07 2°54.421 11.3 301 12.9 101790 38
2012-05-31 04:54:35 51°15.081 2°54.409 11.6 26 12.9 101790 38
2012-05-31 04:54:41 51°15.097 2°54.391 11.5 304 12.9 101790 38
2012-05-31 04:54:46 51°15.11 2°54.376 9 21 12.9 101790 37
2012-05-31 04:54:51 51°15.123 2°54.36 11.6 305 12.9 101790 37
2012-05-31 04:54:56 51°15.135 2°54.345 10.7 20 12.9 101760 37
2012-05-31 04:55:01 51°15.148 2°54.33 11.6 301 12.9 101760 37
2012-05-31 04:55:06 51°15.162 2°54.315 4.4 27 12.9 101780 38
2012-05-31 04:55:11 51°15.175 2°54.3 10.1 303 12.9 101780 38
2012-05-31 04:55:15 51°15.185 2°54.288 13.9 26 12.9 101760 38
2012-05-31 04:55:21 51°15.201 2°54.269 11.5 305 12.9 101760 38
2012-05-31 04:55:26 51°15.214 2°54.255 14.1 24 12.9 101770 38
2012-05-31 04:55:31 51°15.227 2°54.24 5.9 305 12.9 101770 38
2012-05-31 04:55:35 51°15.237 2°54.228 5.7 27 12.9 101770 38
2012-05-31 04:55:41 51°15.253 2°54.209 12.6 306 12.9 101770 38
2012-05-31 04:55:46 51°15.266 2°54.194 12.8 25 12.9 101770 38
2012-05-31 04:55:51 51°15.279 2°54.179 8.6 303 12.9 101770 38
2012-05-31 04:55:55 51°15.29 2°54.167 14.2 23 12.9 101760 36
2012-05-31 04:56:01 51°15.305 2°54.149 11.3 304 12.9 101760 36
2012-05-31 04:56:06 51°15.318 2°54.133 14.5 22 12.9 101770 38
2012-05-31 04:56:11 51°15.331 2°54.118 11.2 304 12.9 101770 38
2012-05-31 04:56:15 51°15.342 2°54.106 10.9 25 12.9 101770 37
2012-05-31 04:56:21 51°15.358 2°54.088 10.6 308 12.9 101770 37
2012-05-31 04:56:26 51°15.371 2°54.073 11.5 27 12.9 101770 36
2012-05-31 04:56:31 51°15.385 2°54.059 11.1 301 12.9 101770 36
2012-05-31 04:56:35 51°15.395 2°54.046 12.4 27 12.9 101770 38
2012-05-31 04:56:40 51°15.408 2°54.031 12.3 308 12.9 101770 38
2012-05-31 04:56:45 51°15.421 2°54.015 13.2 21 12.9 101770 37
2012-05-31 04:56:50 51°15.434 2°54 10.6 303 12.9 101770 37
2012-05-31 04:56:55 51°15.447 2°53.985 13.1 23 12.9 101760 38
2012-05-31 04:57:00 51°15.459 2°53.968 13.6 304 12.9 101760 38
2012-05-31 04:57:05 51°15.471 2°53.952 13.8 20 12.9 101770 37
2012-05-31 04:57:11 51°15.486 2°53.932 6.7 303 12.9 101770 37
2012-05-31 04:57:15 51°15.496 2°53.919 14.6 26 12.9 101760 38
2012-05-31 04:57:21 51°15.511 2°53.899 10.4 307 12.9 101760 38
2012-05-31 04:57:26 51°15.524 2°53.883 11.4 26 12.9 101760 38
2012-05-31 04:57:31 51°15.537 2°53.868 12.9 305 12.9 101760 38
2012-05-31 04:57:36 51°15.549 2°53.851 6.4 25 12.8 101760 38
2012-05-31 04:57:41 51°15.562 2°53.835 13.9 307 12.8 101760 38
2012-05-31 04:57:46 51°15.574 2°53.818 12.1 25 12.8 101760 38
2012-05-31 04:57:51 51°15.586 2°53.802 13.7 307 12.8 101760 38
2012-05-31 04:57:55 51°15.596 2°53.788 13.9 24 12.8 101770 38
2012-05-31 04:58:01 51°15.611 2°53.768 9.1 304 12.8 101770 38
2012-05-31 04:58:06 51°15.624 2°53.753 15.1 20 12.8 101760 37
2012-05-31 04:58:11 51°15.636 2°53.737 11.2 303 12.8 101760 37
2012-05-31 04:58:15 51°15.647 2°53.725 14.4 25 12.8 101760 38
2012-05-31 04:58:21 51°15.662 2°53.706 15.5 310 12.8 101760 38
2012-05-31 04:58:26 51°15.675 2°53.691 14.3 22 12.8 101770 38
2012-05-31 04:58:31 51°15.688 2°53.676 13.6 307 12.8 101770 38
2012-05-31 04:58:35 51°15.699 2°53.665 13 21 12.8 101760 36
2012-05-31 04:58:41 51°15.714 2°53.647 14.6 308 12.8 101760 36
2012-05-31 04:58:46 51°15.727 2°53.633 12.5 24 12.8 101760 38
2012-05-31 04:58:51 51°15.74 2°53.618 11 236 12.8 101760 38
2012-05-31 04:58:55 51°15.75 2°53.605 14.2 24 12.8 101750 38
2012-05-31 04:59:01 51°15.765 2°53.585 12.8 303 12.8 101750 38
2012-05-31 04:59:06 51°15.777 2°53.569 12.5 26 12.8 101740 38
2012-05-31 04:59:11 51°15.789 2°53.551 11.3 303 12.8 101740 38
2012-05-31 04:59:15 51°15.798 2°53.537 14.8 20 12.7 101740 38
2012-05-31 04:59:21 51°15.812 2°53.516 15.1 305 12.7 101740 38
2012-05-31 04:59:26 51°15.824 2°53.499 13.8 23 12.7 101750 38
2012-05-31 04:59:31 51°15.836 2°53.482 11.4 308 12.7 101750 38
2012-05-31 04:59:35 51°15.846 2°53.468 6.8 25 12.7 101750 37
2012-05-31 04:59:41 51°15.86 2°53.446 13.9 305 12.7 101750 37
2012-05-31 04:59:46 51°15.871 2°53.429 6.9 23 12.7 101750 38
2012-05-31 04:59:51 51°15.883 2°53.411 15.7 309 12.7 101750 38
2012-05-31 04:59:55 51°15.893 2°53.397 12.4 22 12.7 101760 38
2012-05-31 05:00:01 51°15.907 2°53.375 10 305 12.7 101760 38
2012-05-31 05:00:06 51°15.919 2°53.358 11.1 24 12.7 101760 37
2012-05-31 05:00:11 51°15.931 2°53.34 10.6 307 12.7 101760 37
2012-05-31 05:00:15 51°15.94 2°53.325 14.3 21 12.7 101750 38
2012-05-31 05:00:21 51°15.954 2°53.304 11.5 303 12.7 101750 38
2012-05-31 05:00:26 51°15.966 2°53.286 11.8 28 12.7 101760 38
2012-05-31 05:00:31 51°15.978 2°53.267 13.4 304 12.7 101760 38
2012-05-31 05:00:35 51°15.987 2°53.253 10.8 27 12.6 101760 38
2012-05-31 05:00:40 51°15.999 2°53.235 13.2 307 12.6 101760 38
2012-05-31 05:00:46 51°16.012 2°53.213 13.1 20 12.6 101760 38
2012-05-31 05:00:51 51°16.024 2°53.195 14.3 237 12.6 101760 38
2012-05-31 05:00:55 51°16.034 2°53.181 11.1 26 12.6 101750 37
2012-05-31 05:01:00 51°16.045 2°53.163 11 304 12.6 101750 37
2012-05-31 05:01:05 51°16.058 2°53.145 13.5 22 12.6 101740 38
2012-05-31 05:01:11 51°16.072 2°53.125 10.8 305 12.6 101740 38
2012-05-31 05:01:15 51°16.082 2°53.112 13.3 23 12.6 101740 36
2012-05-31 05:01:20 51°16.095 2°53.095 10.6 307 12.6 101740 36
2012-05-31 05:01:25 51°16.107 2°53.078 12 24 12.6 101750 37
2012-05-31 05:01:30 51°16.119 2°53.061 6.3 305 12.6 101750 37
2012-05-31 05:01:35 51°16.132 2°53.044 12.1 21 12.6 101760 38
2012-05-31 05:01:40 51°16.144 2°53.027 5.6 304 12.6 101760 38
2012-05-31 05:01:45 51°16.156 2°53.01 14.5 26 12.6 101730 38
2012-05-31 05:01:50 51°16.168 2°52.993 16.1 310 12.6 101730 38
2012-05-31 05:01:55 51°16.181 2°52.976 6.6 24 12.6 101750 37
2012-05-31 05:01:59 51°16.191 2°52.964 14.4 305 12.6 101750 37
2012-05-31 05:02:04 51°16.203 2°52.948 12.9 25 12.6 101760 38
2012-05-31 05:02:10 51°16.219 2°52.93 13.4 304 12.6 101760 38
2012-05-31 05:02:14 51°16.23 2°52.919 11.4 23 12.6 101750 38
2012-05-31 05:02:19 51°16.243 2°52.906 9.6 241 12.6 101750 38
2012-05-31 05:02:24 51°16.256 2°52.891 11.5 21 12.6 101750 38
2012-05-31 05:02:29 51°16.269 2°52.877 12.9 301 12.6 101750 38
2012-05-31 05:02:34 51°16.283 2°52.864 12.3 24 12.6 101740 37
2012-05-31 05:02:39 51°16.297 2°52.851 5.5 308 12.6 101740 37
2012-05-31 05:02:44 51°16.311 2°52.838 13.3 24 12.6 101760 38
2012-05-31 05:02:49 51°16.325 2°52.826 9.8 304 12.6 101760 38
2012-05-31 05:02:54 51°16.339 2°52.814 10.5 26 12.6 101760 37
2012-05-31 05:02:59 51°16.353 2°52.801 12.3 305 12.6 101760 37
2012-05-31 05:03:04 51°16.367 2°52.789 11.3 27 12.6 101760 38
2012-05-31 05:03:09 51°16.38 2°52.775 10.6 301 12.6 101760 38
2012-05-31 05:03:14 51°16.394 2°52.761 13.2 27 12.6 101770 37
2012-05-31 05:03:19 51°16.407 2°52.746 11.7 306 12.6 101770 37
2012-05-31 05:03:23 51°16.418 2°52.735 10.5 26 12.5 101780 38
2012-05-31 05:03:28 51°16.432 2°52.722 10.5 240 12.5 101780 38
2012-05-31 05:03:33 51°16.446 2°52.711 9.1 23 12.6 101760 38
2012-05-31 05:03:39 51°16.464 2°52.698 10.1 305 12.6 101760 38
2012-05-31 05:03:43 51°16.476 2°52.689 10.1 26 12.6 101770 37
2012-05-31 05:03:48 51°16.49 2°52.678 10.1 303 12.6 101770 37
2012-05-31 05:03:53 51°16.505 2°52.667 10.7 24 12.6 101760 37
2012-05-31 05:03:58 51°16.519 2°52.657 13.4 305 12.6 101760 37
2012-05-31 05:04:03 51°16.534 2°52.647 13.3 22 12.6 101770 38
2012-05-31 05:04:08 51°16.549 2°52.637 13 306 12.6 101770 38
2012-05-31 05:04:13 51°16.563 2°52.628 9.1 24 12.6 101770 38
2012-05-31 05:04:18 51°16.578 2°52.617 11.6 304 12.6 101770 38
2012-05-31 05:04:23 51°16.592 2°52.607 11.9 25 12.6 101760 36
2012-05-31 05:04:27 51°16.604 2°52.599 13.4 305 12.6 101760 36
2012-05-31 05:04:32 51°16.618 2°52.589 9.1 25 12.5 101760 38
2012-05-31 05:04:38 51°16.636 2°52.578 11.8 244 12.5 101760 38
2012-05-31 05:04:43 51°16.651 2°52.57 11.9 21 12.5 101770 38
2012-05-31 05:04:47 51°16.662 2°52.563 4.8 244 12.5 101770 38
2012-05-31 05:04:52 51°16.678 2°52.556 8 25 12.5 101760 37
2012-05-31 05:04:57 51°16.693 2°52.548 10.5 302 12.5 101760 37
2012-05-31 05:05:02 51°16.708 2°52.54 12.7 24 12.5 101760 37
2012-05-31 05:05:07 51°16.723 2°52.532 9 308 12.5 101760 37
2012-05-31 05:05:12 51°16.738 2°52.524 12.4 23 12.5 101770 38
2012-05-31 05:05:17 51°16.752 2°52.516 8.9 307 12.5 101770 38
2012-05-31 05:05:22 51°16.768 2°52.508 11.8 246 12.5 101760 37
2012-05-31 05:05:27 51°16.782 2°52.501 8.3 247 12.5 101760 37
2012-05-31 05:05:32 51°16.797 2°52.493 11.8 21 12.5 101780 38
2012-05-31 05:05:37 51°16.812 2°52.485 8.4 308 12.5 101780 38
2012-05-31 05:05:42 51°16.827 2°52.478 9.6 26 12.5 101770 37
2012-05-31 05:05:47 51°16.842 2°52.47 12.9 245 12.5 101770 37
2012-05-31 05:05:52 51°16.857 2°52.462 8.7 250 12.4 101790 38
2012-05-31 05:05:57 51°16.872 2°52.454 9.9 281 12.4 101790 38
2012-05-31 05:06:02 51°16.887 2°52.447 8.2 251 12.5 101770 38
2012-05-31 05:06:07 51°16.902 2°52.439 8.5 304 12.5 101770 38
2012-05-31 05:06:12 51°16.917 2°52.432 9 19 12.4 101770 38
2012-05-31 05:06:17 51°16.933 2°52.427 10.5 245 12.4 101770 38
2012-05-31 05:06:22 51°16.948 2°52.421 8.4 244 12.4 101770 38
2012-05-31 05:06:27 51°16.963 2°52.417 10 305 12.4 101770 38
2012-05-31 05:06:32 51°16.979 2°52.412 10.5 19 12.4 101780 37
2012-05-31 05:06:37 51°16.994 2°52.409 8.4 249 12.4 101780 37
2012-05-31 05:06:42 51°17.009 2°52.404 10 22 12.5 101770 38
2012-05-31 05:06:47 51°17.025 2°52.401 8.9 308 12.5 101770 38
2012-05-31 05:06:52 51°17.04 2°52.398 8.6 248 12.4 101770 38
2012-05-31 05:06:57 51°17.055 2°52.394 10.6 305 12.4 101770 38
2012-05-31 05:07:02 51°17.071 2°52.391 10.3 250 12.4 101770 38
2012-05-31 05:07:07 51°17.087 2°52.389 9.7 303 12.4 101770 38
2012-05-31 05:07:12 51°17.102 2°52.386 7.9 250 12.4 101760 38
2012-05-31 05:07:17 51°17.118 2°52.384 8.6 306 12.4 101760 38
2012-05-31 05:07:22 51°17.133 2°52.38 8 251 12.4 101780 38
2012-05-31 05:07:27 51°17.149 2°52.379 9.3 251 12.4 101780 38
2012-05-31 05:07:32 51°17.164 2°52.375 8.8 252 12.4 101770 38
2012-05-31 05:07:37 51°17.18 2°52.373 8 303 12.4 101770 38
2012-05-31 05:07:42 51°17.195 2°52.37 9.4 252 12.4 101760 37
2012-05-31 05:07:47 51°17.211 2°52.368 12 255 12.4 101760 37
2012-05-31 05:07:52 51°17.227 2°52.365 8.7 254 12.4 101780 37
2012-05-31 05:07:57 51°17.242 2°52.362 7.2 308 12.4 101780 37
2012-05-31 05:08:02 51°17.258 2°52.359 12.1 252 12.3 101780 37
2012-05-31 05:08:07 51°17.273 2°52.356 7.8 302 12.3 101780 37
2012-05-31 05:08:12 51°17.289 2°52.353 9.3 252 12.3 101770 38
2012-05-31 05:08:17 51°17.304 2°52.35 9.4 307 12.3 101770 38
2012-05-31 05:08:22 51°17.32 2°52.347 9.7 22 12.3 101770 38
2012-05-31 05:08:27 51°17.335 2°52.344 5.2 303 12.3 101770 38
2012-05-31 05:08:32 51°17.351 2°52.341 10.6 250 12.3 101790 38
2012-05-31 05:08:37 51°17.367 2°52.338 10.6 251 12.3 101790 38
2012-05-31 05:08:42 51°17.383 2°52.336 8.4 248 12.3 101760 38
2012-05-31 05:08:47 51°17.398 2°52.334 9 302 12.3 101760 38
2012-05-31 05:08:52 51°17.414 2°52.332 10 253 12.3 101770 37
2012-05-31 05:08:57 51°17.43 2°52.331 10.4 253 12.3 101770 37
2012-05-31 05:09:02 51°17.446 2°52.329 9.2 249 12.3 101770 38
2012-05-31 05:09:07 51°17.462 2°52.328 8.5 308 12.3 101770 38
2012-05-31 05:09:12 51°17.477 2°52.327 9.6 251 12.3 101770 36
2012-05-31 05:09:17 51°17.493 2°52.328 10.6 250 12.3 101770 36
2012-05-31 05:09:22 51°17.509 2°52.327 9.5 22 12.3 101760 37
2012-05-31 05:09:27 51°17.525 2°52.326 10.5 303 12.3 101760 37
2012-05-31 05:09:32 51°17.541 2°52.323 10.1 252 12.3 101760 37
2012-05-31 05:09:37 51°17.557 2°52.322 11.6 304 12.3 101760 37
2012-05-31 05:09:42 51°17.572 2°52.32 10.4 256 12.3 101770 36
2012-05-31 05:09:47 51°17.588 2°52.318 11.3 254 12.3 101770 36
2012-05-31 05:09:52 51°17.603 2°52.316 8 252 12.3 101760 38
2012-05-31 05:09:57 51°17.619 2°52.314 10.8 307 12.3 101760 38
2012-05-31 05:10:02 51°17.635 2°52.313 8.9 256 12.2 101780 38
2012-05-31 05:10:07 51°17.651 2°52.312 7 255 12.2 101780 38
2012-05-31 05:10:12 51°17.666 2°52.311 9.1 258 12.2 101760 37
2012-05-31 05:10:17 51°17.682 2°52.31 7.7 308 12.2 101760 37
2012-05-31 05:10:22 51°17.698 2°52.308 7 251 12.2 101770 37
2012-05-31 05:10:27 51°17.714 2°52.308 9.2 307 12.2 101770 37
2012-05-31 05:10:32 51°17.73 2°52.308 10.3 252 12.2 101780 38
2012-05-31 05:10:37 51°17.745 2°52.305 10.1 309 12.2 101780 38
2012-05-31 05:10:42 51°17.761 2°52.306 8.5 254 12.2 101780 37
2012-05-31 05:10:47 51°17.776 2°52.303 8.9 306 12.2 101780 37
2012-05-31 05:10:52 51°17.792 2°52.299 10.8 257 12.2 101770 37
2012-05-31 05:10:57 51°17.807 2°52.299 9 280 12.2 101770 37
2012-05-31 05:11:02 51°17.823 2°52.296 10.5 257 12.1 101780 38
2012-05-31 05:11:07 51°17.838 2°52.295 7.5 304 12.1 101780 38
2012-05-31 05:11:12 51°17.854 2°52.293 7.2 255 12.1 101780 37
2012-05-31 05:11:17 51°17.87 2°52.291 8 304 12.1 101780 37
2012-05-31 05:11:22 51°17.886 2°52.291 8.1 250 12.1 101780 38
2012-05-31 05:11:27 51°17.901 2°52.289 7.8 307 12.1 101780 38
2012-05-31 05:11:32 51°17.917 2°52.289 8.5 258 12.1 101770 38
2012-05-31 05:11:37 51°17.932 2°52.285 7.2 301 12.1 101770 38
2012-05-31 05:11:42 51°17.948 2°52.284 8.2 257 12.1 101770 37
2012-05-31 05:11:47 51°17.964 2°52.282 7.7 306 12.1 101770 37
2012-05-31 05:11:52 51°17.98 2°52.281 7.4 253 12.1 101770 36
2012-05-31 05:11:57 51°17.995 2°52.28 8.8 282 12.1 101770 36
2012-05-31 05:12:02 51°18.011 2°52.279 8.3 259 12.1 101770 38
2012-05-31 05:12:07 51°18.027 2°52.279 7.8 308 12.1 101770 38
2012-05-31 05:12:12 51°18.043 2°52.278 7.3 254 12.1 101780 38
2012-05-31 05:12:17 51°18.059 2°52.277 8.2 305 12.1 101780 38
2012-05-31 05:12:22 51°18.074 2°52.276 9.1 256 12.1 101770 36
2012-05-31 05:12:27 51°18.09 2°52.276 9.2 310 12.1 101770 36
2012-05-31 05:12:32 51°18.106 2°52.276 7 250 12.1 101770 37
2012-05-31 05:12:37 51°18.122 2°52.275 8.3 305 12.1 101770 37
2012-05-31 05:12:42 51°18.137 2°52.275 6.4 254 12.1 101760 37
2012-05-31 05:12:47 51°18.153 2°52.275 9.4 303 12.1 101760 37
2012-05-31 05:12:52 51°18.169 2°52.275 7.7 257 12.1 101770 38
2012-05-31 05:12:57 51°18.185 2°52.277 7 256 12.1 101770 38
2012-05-31 05:13:02 51°18.201 2°52.278 6.7 256 12.1 101760 38
2012-05-31 05:13:07 51°18.217 2°52.279 9.2 305 12.1 101760 38
2012-05-31 05:13:12 51°18.232 2°52.281 9.1 259 12.1 101770 37
2012-05-31 05:13:17 51°18.248 2°52.282 7.9 253 12.1 101770 37
2012-05-31 05:13:22 51°18.264 2°52.283 9.2 258 12.1 101760 38
2012-05-31 05:13:27 51°18.28 2°52.285 7.9 306 12.1 101760 38
2012-05-31 05:13:32 51°18.296 2°52.284 8.5 252 12.1 101770 38
2012-05-31 05:13:37 51°18.311 2°52.286 10.8 253 12.1 101770 38
2012-05-31 05:13:42 51°18.327 2°52.286 3.2 254 12.1 101770 37
2012-05-31 05:13:47 51°18.343 2°52.285 9.6 303 12.1 101770 37
2012-05-31 05:13:52 51°18.359 2°52.285 11.2 251 12.1 101770 37
2012-05-31 05:13:57 51°18.374 2°52.285 9 280 12.1 101770 37
2012-05-31 05:14:02 51°18.39 2°52.286 9.5 256 12.1 101760 38
2012-05-31 05:14:07 51°18.406 2°52.286 9.2 304 12.1 101760 38
2012-05-31 05:14:12 51°18.422 2°52.287 8.7 255 12.1 101760 37
2012-05-31 05:14:17 51°18.437 2°52.288 7.9 304 12.1 101760 37
2012-05-31 05:14:22 51°18.453 2°52.289 8.5 256 12.1 101760 38
2012-05-31 05:14:27 51°18.469 2°52.29 10.4 304 12.1 101760 38
2012-05-31 05:14:32 51°18.485 2°52.292 9.5 258 12.1 101770 36
2012-05-31 05:14:37 51°18.5 2°52.294 8.5 306 12.1 101770 36
2012-05-31 05:14:42 51°18.516 2°52.295 8.1 252 12.1 101770 38
2012-05-31 05:14:47 51°18.532 2°52.298 8 301 12.1 101770 38
2012-05-31 05:14:52 51°18.547 2°52.298 7.9 255 12.1 101770 38
2012-05-31 05:14:57 51°18.563 2°52.299 8 281 12.1 101770 38
2012-05-31 05:15:02 51°18.579 2°52.299 8.6 254 12 101760 36
2012-05-31 05:15:07 51°18.595 2°52.299 7.2 304 12 101760 36
2012-05-31 05:15:12 51°18.611 2°52.301 8.1 254 12.1 101770 37
2012-05-31 05:15:17 51°18.626 2°52.298 9.5 310 12.1 101770 37
2012-05-31 05:15:22 51°18.642 2°52.301 8.9 252 12 101760 38
2012-05-31 05:15:27 51°18.658 2°52.298 10.1 310 12 101760 38
2012-05-31 05:15:32 51°18.674 2°52.299 8.9 251 12 101770 37
2012-05-31 05:15:37 51°18.69 2°52.297 10.1 306 12 101770 37
2012-05-31 05:15:42 51°18.705 2°52.297 7.6 255 12 101760 37
2012-05-31 05:15:47 51°18.721 2°52.296 9.1 304 12 101760 37
2012-05-31 05:15:52 51°18.737 2°52.297 7.1 252 12 101760 37
2012-05-31 05:15:57 51°18.753 2°52.297 6.6 285 12 101760 37
2012-05-31 05:16:02 51°18.769 2°52.296 9.7 252 12 101750 38
2012-05-31 05:16:07 51°18.785 2°52.296 8.1 304 12 101750 38
2012-05-31 05:16:12 51°18.801 2°52.296 7.3 249 11.9 101770 38
2012-05-31 05:16:17 51°18.816 2°52.295 9.3 307 11.9 101770 38
2012-05-31 05:16:22 51°18.833 2°52.295 7.7 20 12 101750 37
2012-05-31 05:16:27 51°18.849 2°52.293 8 304 12 101750 37
2012-05-31 05:16:32 51°18.864 2°52.293 7.5 254 11.9 101760 37
2012-05-31 05:16:37 51°18.88 2°52.292 7.6 303 11.9 101760 37
2012-05-31 05:16:42 51°18.896 2°52.292 7.2 253 11.9 101760 38
2012-05-31 05:16:47 51°18.912 2°52.292 9.8 301 11.9 101760 38
2012-05-31 05:16:52 51°18.928 2°52.291 8.4 255 11.9 101760 38
2012-05-31 05:16:57 51°18.945 2°52.292 8.1 280 11.9 101760 38
2012-05-31 05:17:02 51°18.96 2°52.292 7.1 250 11.9 101750 37
2012-05-31 05:17:07 51°18.976 2°52.292 9.5 251 11.9 101750 37
2012-05-31 05:17:12 51°18.993 2°52.292 6.5 254 11.9 101760 36
2012-05-31 05:17:17 51°19.009 2°52.294 7.6 307 11.9 101760 36
2012-05-31 05:17:22 51°19.025 2°52.292 10 255 11.9 101760 38
2012-05-31 05:17:27 51°19.041 2°52.295 9.3 308 11.9 101760 38
2012-05-31 05:17:32 51°19.057 2°52.294 8.7 254 11.9 101760 37
2012-05-31 05:17:37 51°19.073 2°52.294 11 302 11.9 101760 37
2012-05-31 05:17:42 51°19.089 2°52.295 6.3 253 11.9 101770 36
2012-05-31 05:17:47 51°19.105 2°52.293 8.9 311 11.9 101770 36
2012-05-31 05:17:52 51°19.121 2°52.294 5.7 252 11.9 101770 37
2012-05-31 05:17:57 51°19.137 2°52.294 6.9 305 11.9 101770 37
2012-05-31 05:18:02 51°19.153 2°52.294 10 256 11.9 101770 37
2012-05-31 05:18:07 51°19.169 2°52.293 6.6 309 11.9 101770 37
2012-05-31 05:18:12 51°19.185 2°52.294 7.5 252 11.9 101770 38
2012-05-31 05:18:17 51°19.202 2°52.293 7.6 307 11.9 101770 38
2012-05-31 05:18:22 51°19.218 2°52.294 8 255 11.9 101770 37
2012-05-31 05:18:27 51°19.234 2°52.293 6.8 303 11.9 101770 37
2012-05-31 05:18:32 51°19.25 2°52.293 7.8 255 11.9 101760 37
2012-05-31 05:18:37 51°19.266 2°52.293 8.1 303 11.9 101760 37
2012-05-31 05:18:42 51°19.283 2°52.292 9.1 252 11.9 101760 38
2012-05-31 05:18:47 51°19.299 2°52.294 7.6 305 11.9 101760 38
2012-05-31 05:18:52 51°19.315 2°52.293 7.4 22 11.9 101770 38
2012-05-31 05:18:57 51°19.331 2°52.295 7 283 11.9 101770 38
2012-05-31 05:19:02 51°19.347 2°52.295 9.4 248 11.9 101760 38
2012-05-31 05:19:07 51°19.363 2°52.297 9.1 250 11.9 101760 38
2012-05-31 05:19:12 51°19.379 2°52.298 10.5 251 11.9 101770 37
2012-05-31 05:19:17 51°19.395 2°52.298 10.2 309 11.9 101770 37
2012-05-31 05:19:22 51°19.411 2°52.301 7.6 255 11.9 101770 38
2012-05-31 05:19:27 51°19.428 2°52.298 10.8 308 11.9 101770 38
2012-05-31 05:19:32 51°19.443 2°52.301 7.6 21 11.9 101750 37
2012-05-31 05:19:37 51°19.459 2°52.299 9.5 303 11.9 101750 37
2012-05-31 05:19:42 51°19.475 2°52.3 7.5 250 11.9 101770 38
2012-05-31 05:19:47 51°19.491 2°52.298 8.9 304 11.9 101770 38
2012-05-31 05:19:52 51°19.507 2°52.298 8 247 11.9 101760 37
2012-05-31 05:19:57 51°19.523 2°52.298 8.7 304 11.9 101760 37
2012-05-31 05:20:02 51°19.539 2°52.298 8.7 250 11.9 101750 37
2012-05-31 05:20:07 51°19.555 2°52.298 9.4 304 11.9 101750 37
2012-05-31 05:20:12 51°19.571 2°52.297 9.4 251 11.9 101750 38
2012-05-31 05:20:17 51°19.587 2°52.298 9.1 309 11.9 101750 38
2012-05-31 05:20:22 51°19.603 2°52.298 9.1 253 11.9 101760 36
2012-05-31 05:20:27 51°19.619 2°52.298 7.6 309 11.9 101760 36
2012-05-31 05:20:32 51°19.635 2°52.3 8.4 255 11.9 101750 37
2012-05-31 05:20:37 51°19.651 2°52.298 8.6 308 11.9 101750 37
2012-05-31 05:20:42 51°19.667 2°52.301 7.2 249 11.9 101770 37
2012-05-31 05:20:47 51°19.683 2°52.3 8.3 303 11.9 101770 37
2012-05-31 05:20:52 51°19.699 2°52.3 8.8 253 11.9 101770 37
2012-05-31 05:20:57 51°19.715 2°52.3 9.1 279 11.9 101770 37
2012-05-31 05:21:02 51°19.731 2°52.301 7.4 249 11.9 101770 38
2012-05-31 05:21:07 51°19.747 2°52.3 8.7 251 11.9 101770 38
2012-05-31 05:21:12 51°19.763 2°52.299 9.1 253 11.9 101760 38
2012-05-31 05:21:17 51°19.779 2°52.299 10.6 304 11.9 101760 38
2012-05-31 05:21:22 51°19.795 2°52.3 7.9 248 11.9 101750 37
2012-05-31 05:21:27 51°19.812 2°52.3 10.1 251 11.9 101750 37
2012-05-31 05:21:32 51°19.828 2°52.302 9.1 252 11.9 101750 37
2012-05-31 05:21:37 51°19.844 2°52.302 8.9 308 11.9 101750 37
2012-05-31 05:21:42 51°19.86 2°52.303 7.3 253 11.8 101750 38
2012-05-31 05:21:47 51°19.876 2°52.305 9.5 302 11.8 101750 38
2012-05-31 05:21:52 51°19.892 2°52.307 7.9 251 11.8 101760 38
2012-05-31 05:21:57 51°19.908 2°52.307 9.1 283 11.8 101760 38
2012-05-31 05:22:02 51°19.924 2°52.309 8.1 254 11.8 101750 37
2012-05-31 05:22:07 51°19.94 2°52.311 10.7 302 11.8 101750 37
2012-05-31 05:22:12 51°19.956 2°52.315 8.7 253 11.8 101750 37
2012-05-31 05:22:17 51°19.972 2°52.315 10 306 11.8 101750 37
2012-05-31 05:22:22 51°19.988 2°52.317 8.6 253 11.8 101760 37
2012-05-31 05:22:27 51°20.003 2°52.318 9 307 11.8 101760 37
2012-05-31 05:22:32 51°20.019 2°52.319 9.4 260 11.8 101740 36
2012-05-31 05:22:37 51°20.035 2°52.319 8.6 309 11.8 101740 36
2012-05-31 05:22:42 51°20.051 2°52.32 10.2 255 11.7 101760 38
2012-05-31 05:22:47 51°20.067 2°52.322 9.5 302 11.7 101760 38
2012-05-31 05:22:52 51°20.083 2°52.323 9.3 257 11.7 101750 37
2012-05-31 05:22:57 51°20.099 2°52.325 9.2 285 11.7 101750 37
2012-05-31 05:23:02 51°20.115 2°52.326 9.2 258 11.7 101750 36
2012-05-31 05:23:07 51°20.131 2°52.326 8.7 309 11.7 101750 36
2012-05-31 05:23:12 51°20.148 2°52.329 9.1 257 11.7 101760 37
2012-05-31 05:23:17 51°20.164 2°52.329 6.7 304 11.7 101760 37
2012-05-31 05:23:22 51°20.18 2°52.332 8.1 253 11.7 101770 37
2012-05-31 05:23:27 51°20.196 2°52.333 10.8 260 11.7 101770 37
2012-05-31 05:23:32 51°20.212 2°52.334 8.8 257 11.7 101760 37
2012-05-31 05:23:37 51°20.228 2°52.336 10.1 308 11.7 101760 37
2012-05-31 05:23:42 51°20.244 2°52.336 8 257 11.7 101760 37
2012-05-31 05:23:47 51°20.26 2°52.338 7.9 257 11.7 101760 37
2012-05-31 05:23:52 51°20.276 2°52.338 9.3 261 11.7 101760 37
2012-05-31 05:23:57 51°20.291 2°52.341 7.7 282 11.7 101760 37
2012-05-31 05:24:02 51°20.307 2°52.341 10 259 11.7 101760 37
2012-05-31 05:24:07 51°20.323 2°52.343 6.5 306 11.7 101760 37
2012-05-31 05:24:12 51°20.339 2°52.342 8.2 254 11.7 101760 37
2012-05-31 05:24:17 51°20.355 2°52.344 7.9 305 11.7 101760 37
2012-05-31 05:24:22 51°20.371 2°52.344 8.2 254 11.7 101760 38
2012-05-31 05:24:27 51°20.387 2°52.346 7.6 310 11.7 101760 38
2012-05-31 05:24:32 51°20.403 2°52.346 7.8 256 11.6 101760 37
2012-05-31 05:24:37 51°20.419 2°52.349 8 304 11.6 101760 37
2012-05-31 05:24:42 51°20.435 2°52.348 7.5 254 11.7 101760 37
2012-05-31 05:24:47 51°20.451 2°52.351 6.6 302 11.7 101760 37
2012-05-31 05:24:52 51°20.467 2°52.353 9 255 11.7 101750 37
2012-05-31 05:24:57 51°20.483 2°52.356 6.2 286 11.7 101750 37
2012-05-31 05:25:02 51°20.499 2°52.358 6.4 249 11.7 101760 38
2012-05-31 05:25:07 51°20.515 2°52.358 7.3 309 11.7 101760 38
2012-05-31 05:25:12 51°20.531 2°52.362 7.3 251 11.6 101760 36
2012-05-31 05:25:17 51°20.547 2°52.361 8.7 308 11.6 101760 36
2012-05-31 05:25:22 51°20.563 2°52.365 6.8 21 11.7 101770 37
2012-05-31 05:25:27 51°20.579 2°52.365 8.2 251 11.7 101770 37
2012-05-31 05:25:32 51°20.595 2°52.367 7.8 254 11.7 101760 37
2012-05-31 05:25:37 51°20.61 2°52.367 7.2 310 11.7 101760 37
2012-05-31 05:25:42 51°20.626 2°52.369 7.8 250 11.7 101760 36
2012-05-31 05:25:47 51°20.642 2°52.368 5.9 251 11.7 101760 36
2012-05-31 05:25:52 51°20.658 2°52.37 8.4 251 11.7 101740 38
2012-05-31 05:25:57 51°20.674 2°52.37 7.4 309 11.7 101740 38
2012-05-31 05:26:02 51°20.69 2°52.37 10.3 256 11.7 101760 37
2012-05-31 05:26:07 51°20.706 2°52.373 7.8 250 11.7 101760 37
2012-05-31 05:26:12 51°20.721 2°52.374 8.2 252 11.7 101750 37
2012-05-31 05:26:17 51°20.737 2°52.375 7 308 11.7 101750 37
2012-05-31 05:26:22 51°20.754 2°52.377 10.5 255 11.7 101740 38
2012-05-31 05:26:27 51°20.77 2°52.378 7 302 11.7 101740 38
2012-05-31 05:26:32 51°20.786 2°52.379 8.1 21 11.6 101760 37
2012-05-31 05:26:37 51°20.802 2°52.38 8.2 304 11.6 101760 37
2012-05-31 05:26:42 51°20.818 2°52.382 7.6 251 11.7 101760 38
2012-05-31 05:26:47 51°20.834 2°52.385 4.3 306 11.7 101760 38
2012-05-31 05:26:52 51°20.85 2°52.385 8.6 256 11.6 101750 38
2012-05-31 05:26:57 51°20.866 2°52.388 9.2 285 11.6 101750 38
2012-05-31 05:27:02 51°20.882 2°52.388 9.6 257 11.6 101740 37
2012-05-31 05:27:07 51°20.898 2°52.392 9.4 305 11.6 101740 37
2012-05-31 05:27:12 51°20.914 2°52.392 9.5 259 11.7 101740 37
2012-05-31 05:27:17 51°20.93 2°52.396 7.6 307 11.7 101740 37
2012-05-31 05:27:22 51°20.946 2°52.396 9.8 257 11.6 101750 37
2012-05-31 05:27:27 51°20.962 2°52.397 8.9 258 11.6 101750 37
2012-05-31 05:27:32 51°20.978 2°52.398 9.1 258 11.6 101750 38
2012-05-31 05:27:37 51°20.993 2°52.402 5.5 307 11.6 101750 38
2012-05-31 05:27:42 51°21.009 2°52.408 4.4 264 11.6 101750 38
2012-05-31 05:27:47 51°21.024 2°52.418 4 40 11.6 101750 38
2012-05-31 05:27:52 51°21.037 2°52.43 3.4 22 11.6 101740 36
2012-05-31 05:27:57 51°21.051 2°52.443 1.6 310 11.6 101740 36
2012-05-31 05:28:02 51°21.063 2°52.459 3.7 23 11.6 101760 38
2012-05-31 05:28:07 51°21.076 2°52.474 3.6 57 11.6 101760 38
2012-05-31 05:28:12 51°21.087 2°52.492 0.2 25 11.6 101760 38
2012-05-31 05:28:17 51°21.1 2°52.508 0.1 55 11.6 101760 38
2012-05-31 05:28:22 51°21.111 2°52.526 -999 24 11.6 101760 37
2012-05-31 05:28:27 51°21.124 2°52.544 -999 54 11.6 101760 37
2012-05-31 05:28:32 51°21.135 2°52.562 -999 269 11.6 101760 37
2012-05-31 05:28:37 51°21.147 2°52.58 -999 54 11.6 101760 37
2012-05-31 05:28:42 51°21.16 2°52.596 -999 24 11.6 101760 37
2012-05-31 05:28:47 51°21.172 2°52.614 0.1 57 11.6 101760 37
2012-05-31 05:28:51 51°21.182 2°52.627 0.1 25 11.6 101770 37
2012-05-31 05:28:57 51°21.196 2°52.648 -999 79 11.6 101770 37
2012-05-31 05:29:02 51°21.209 2°52.665 -999 268 11.6 101760 37
2012-05-31 05:29:07 51°21.221 2°52.683 -999 57 11.6 101760 37
2012-05-31 05:29:11 51°21.231 2°52.696 -999 267 11.6 101760 37
2012-05-31 05:29:17 51°21.246 2°52.718 -999 265 11.6 101760 37
2012-05-31 05:29:22 51°21.259 2°52.734 -999 266 11.6 101760 37
2012-05-31 05:29:27 51°21.27 2°52.753 -999 57 11.6 101760 37
2012-05-31 05:29:32 51°21.283 2°52.771 -999 25 11.6 101760 37
2012-05-31 05:29:37 51°21.295 2°52.789 -999 308 11.6 101760 37
2012-05-31 05:29:42 51°21.307 2°52.808 -999 28 11.6 101750 37
2012-05-31 05:29:47 51°21.319 2°52.826 0.1 302 11.6 101750 37
2012-05-31 05:29:52 51°21.331 2°52.845 0.1 25 11.6 101750 37
2012-05-31 05:29:57 51°21.342 2°52.864 -999 54 11.6 101750 37
2012-05-31 05:30:02 51°21.354 2°52.882 -999 26 11.6 101760 37
2012-05-31 05:30:07 51°21.366 2°52.901 -999 54 11.6 101760 37
2012-05-31 05:30:12 51°21.378 2°52.92 -999 24 11.6 101760 37
2012-05-31 05:30:17 51°21.39 2°52.938 0.1 305 11.6 101760 37
2012-05-31 05:30:22 51°21.402 2°52.955 0.1 267 11.6 101750 37
2012-05-31 05:30:27 51°21.414 2°52.974 -999 38 11.6 101750 37
2012-05-31 05:30:32 51°21.427 2°52.991 -999 25 11.6 101760 36
2012-05-31 05:30:37 51°21.438 2°53.009 -999 55 11.6 101760 36
2012-05-31 05:30:42 51°21.45 2°53.027 -999 24 11.6 101760 37
2012-05-31 05:30:47 51°21.463 2°53.044 -999 308 11.6 101760 37
2012-05-31 05:30:52 51°21.475 2°53.062 -999 26 11.6 101760 37
2012-05-31 05:30:57 51°21.486 2°53.08 3.8 79 11.6 101760 37
2012-05-31 05:31:02 51°21.497 2°53.099 2.7 27 11.5 101760 36
2012-05-31 05:31:07 51°21.509 2°53.118 2.6 308 11.5 101760 36
2012-05-31 05:31:11 51°21.518 2°53.132 0.3 270 11.5 101760 37
2012-05-31 05:31:17 51°21.533 2°53.152 0.1 55 11.5 101760 37
2012-05-31 05:31:22 51°21.545 2°53.17 0.1 24 11.5 101750 37
2012-05-31 05:31:27 51°21.557 2°53.187 -999 56 11.5 101750 37
2012-05-31 05:31:32 51°21.57 2°53.204 -999 24 11.5 101760 38
2012-05-31 05:31:37 51°21.582 2°53.222 -999 35 11.5 101760 38
2012-05-31 05:31:42 51°21.595 2°53.238 -999 23 11.5 101770 37
2012-05-31 05:31:47 51°21.607 2°53.256 -999 55 11.5 101770 37
2012-05-31 05:31:52 51°21.621 2°53.272 -999 23 11.5 101760 37
2012-05-31 05:31:57 51°21.633 2°53.289 -999 78 11.5 101760 37
2012-05-31 05:32:02 51°21.646 2°53.307 -999 23 11.4 101760 37
2012-05-31 05:32:07 51°21.658 2°53.324 -999 55 11.4 101760 37
2012-05-31 05:32:12 51°21.67 2°53.341 -999 23 11.4 101760 37
2012-05-31 05:32:17 51°21.682 2°53.36 -999 54 11.4 101760 37
2012-05-31 05:32:22 51°21.696 2°53.377 -999 23 11.4 101760 37
2012-05-31 05:32:27 51°21.707 2°53.396 -999 55 11.4 101760 37
2012-05-31 05:32:32 51°21.719 2°53.414 -999 24 11.4 101760 37
2012-05-31 05:32:37 51°21.732 2°53.432 -999 54 11.4 101760 37
2012-05-31 05:32:42 51°21.743 2°53.451 -999 24 11.4 101760 37
2012-05-31 05:32:47 51°21.756 2°53.469 -999 51 11.4 101760 37
2012-05-31 05:32:52 51°21.767 2°53.489 -999 25 11.4 101760 37
2012-05-31 05:32:57 51°21.78 2°53.505 -999 54 11.4 101760 37
2012-05-31 05:33:02 51°21.791 2°53.525 -999 24 11.3 101750 37
2012-05-31 05:33:07 51°21.803 2°53.543 -999 54 11.3 101750 37
2012-05-31 05:33:12 51°21.815 2°53.562 -999 24 11.4 101750 37
2012-05-31 05:33:17 51°21.828 2°53.579 -999 35 11.4 101750 37
2012-05-31 05:33:22 51°21.839 2°53.598 -999 24 11.4 101750 37
2012-05-31 05:33:27 51°21.852 2°53.616 -999 54 11.4 101750 37
2012-05-31 05:33:32 51°21.865 2°53.633 -999 269 11.4 101760 37
2012-05-31 05:33:37 51°21.878 2°53.65 -999 35 11.4 101760 37
2012-05-31 05:33:42 51°21.891 2°53.668 -999 24 11.4 101750 36
2012-05-31 05:33:47 51°21.903 2°53.685 -999 54 11.4 101750 36
2012-05-31 05:33:52 51°21.916 2°53.702 -999 24 11.3 101760 37
2012-05-31 05:33:57 51°21.929 2°53.719 -999 35 11.3 101760 37
2012-05-31 05:34:02 51°21.941 2°53.737 -999 23 11.3 101760 37
2012-05-31 05:34:07 51°21.954 2°53.754 -999 55 11.3 101760 37
2012-05-31 05:34:12 51°21.966 2°53.771 -999 24 11.3 101760 37
2012-05-31 05:34:17 51°21.979 2°53.787 -999 54 11.3 101760 37
2012-05-31 05:34:22 51°21.992 2°53.805 -999 270 11.3 101750 37
2012-05-31 05:34:27 51°22.005 2°53.822 -999 35 11.3 101750 37
2012-05-31 05:34:32 51°22.017 2°53.838 -999 24 11.3 101760 37
2012-05-31 05:34:37 51°22.03 2°53.856 -999 55 11.3 101760 37
2012-05-31 05:34:42 51°22.043 2°53.872 -999 265 11.3 101760 37
2012-05-31 05:34:47 51°22.056 2°53.89 -999 270 11.3 101760 37
2012-05-31 05:34:52 51°22.069 2°53.907 -999 270 11.3 101760 37
2012-05-31 05:34:57 51°22.082 2°53.924 -999 54 11.3 101760 37
2012-05-31 05:35:02 51°22.095 2°53.94 -999 263 11.3 101760 37
2012-05-31 05:35:07 51°22.108 2°53.956 4.2 63 11.3 101760 37
2012-05-31 05:35:12 51°22.122 2°53.971 4.5 270 11.3 101750 37
2012-05-31 05:35:17 51°22.136 2°53.984 4.8 301 11.3 101750 37
2012-05-31 05:35:22 51°22.151 2°53.995 3.2 265 11.3 101760 37
2012-05-31 05:35:27 51°22.166 2°54.007 5.8 307 11.3 101760 37
2012-05-31 05:35:32 51°22.181 2°54.013 7.9 263 11.3 101760 37
2012-05-31 05:35:37 51°22.196 2°54.022 8.1 257 11.3 101760 37
2012-05-31 05:35:42 51°22.212 2°54.026 7 255 11.3 101760 38
2012-05-31 05:35:47 51°22.228 2°54.03 8.2 307 11.3 101760 38
2012-05-31 05:35:52 51°22.244 2°54.03 8.3 255 11.3 101750 37
2012-05-31 05:35:57 51°22.261 2°54.033 10.2 252 11.3 101750 37
2012-05-31 05:36:02 51°22.277 2°54.032 9.4 252 11.3 101760 37
2012-05-31 05:36:07 51°22.293 2°54.032 8.5 302 11.3 101760 37
2012-05-31 05:36:12 51°22.31 2°54.032 7.5 252 11.4 101750 38
2012-05-31 05:36:17 51°22.326 2°54.031 9.8 257 11.4 101750 38
2012-05-31 05:36:22 51°22.342 2°54.032 8.6 254 11.3 101750 36
2012-05-31 05:36:27 51°22.358 2°54.031 8.5 252 11.3 101750 36
2012-05-31 05:36:32 51°22.375 2°54.031 8 255 11.4 101750 37
2012-05-31 05:36:37 51°22.391 2°54.031 9.2 301 11.4 101750 37
2012-05-31 05:36:42 51°22.408 2°54.03 9.2 251 11.4 101750 37
2012-05-31 05:36:47 51°22.425 2°54.029 9.3 254 11.4 101750 37
2012-05-31 05:36:52 51°22.441 2°54.029 10.5 254 11.4 101750 38
2012-05-31 05:36:57 51°22.457 2°54.027 9 282 11.4 101750 38
2012-05-31 05:37:02 51°22.474 2°54.027 7.4 249 11.4 101740 38
2012-05-31 05:37:07 51°22.49 2°54.025 8.5 252 11.4 101740 38
2012-05-31 05:37:12 51°22.507 2°54.025 10.2 251 11.4 101750 37
2012-05-31 05:37:17 51°22.523 2°54.024 8.6 305 11.4 101750 37
2012-05-31 05:37:22 51°22.54 2°54.024 9.9 249 11.4 101750 37
2012-05-31 05:37:27 51°22.556 2°54.024 8.7 307 11.4 101750 37
2012-05-31 05:37:32 51°22.572 2°54.024 8.5 20 11.4 101730 37
2012-05-31 05:37:37 51°22.589 2°54.023 3.5 251 11.4 101730 37
2012-05-31 05:37:43 51°22.608 2°54.021 9.7 256 11.4 101740 37
2012-05-31 05:37:47 51°22.622 2°54.021 9.2 310 11.4 101740 37
2012-05-31 05:37:52 51°22.638 2°54.018 10.3 256 11.4 101740 37
2012-05-31 05:37:58 51°22.658 2°54.018 7.8 307 11.4 101740 37
2012-05-31 05:38:03 51°22.674 2°54.016 9.4 253 11.4 101740 37
2012-05-31 05:38:07 51°22.687 2°54.015 7.6 310 11.4 101740 37
2012-05-31 05:38:12 51°22.704 2°54.014 4.5 252 11.4 101730 37
2012-05-31 05:38:17 51°22.72 2°54.012 8.8 305 11.4 101730 37
2012-05-31 05:38:22 51°22.737 2°54.012 11.4 256 11.4 101740 37
2012-05-31 05:38:27 51°22.754 2°54.011 9.5 309 11.4 101740 37
2012-05-31 05:38:32 51°22.771 2°54.011 8.4 250 11.4 101750 38
2012-05-31 05:38:37 51°22.787 2°54.01 11.9 308 11.4 101750 38
2012-05-31 05:38:42 51°22.804 2°54.01 11.2 254 11.4 101740 37
2012-05-31 05:38:47 51°22.821 2°54.009 9.4 306 11.4 101740 37
2012-05-31 05:38:52 51°22.837 2°54.01 9 255 11.4 101740 37
2012-05-31 05:38:57 51°22.853 2°54.009 10.9 280 11.4 101740 37
2012-05-31 05:39:02 51°22.87 2°54.01 9.2 253 11.3 101730 36
2012-05-31 05:39:07 51°22.886 2°54.01 8.3 303 11.3 101730 36
2012-05-31 05:39:12 51°22.902 2°54.011 6.8 257 11.4 101730 37
2012-05-31 05:39:17 51°22.919 2°54.011 8.6 303 11.4 101730 37
2012-05-31 05:39:22 51°22.935 2°54.011 7.7 254 11.3 101730 37
2012-05-31 05:39:27 51°22.951 2°54.011 9.3 308 11.3 101730 37
2012-05-31 05:39:32 51°22.968 2°54.011 8.7 251 11.3 101740 37
2012-05-31 05:39:37 51°22.984 2°54.011 9.7 301 11.3 101740 37
2012-05-31 05:39:42 51°23 2°54.013 7.9 256 11.3 101740 37
2012-05-31 05:39:47 51°23.017 2°54.013 9.5 302 11.3 101740 37
2012-05-31 05:39:52 51°23.033 2°54.014 8.8 256 11.3 101740 37
2012-05-31 05:39:57 51°23.05 2°54.014 10 303 11.3 101740 37
2012-05-31 05:40:02 51°23.066 2°54.016 10.6 257 11.3 101730 38
2012-05-31 05:40:07 51°23.082 2°54.015 8.8 303 11.3 101730 38
2012-05-31 05:40:12 51°23.098 2°54.014 8.5 254 11.3 101740 38
2012-05-31 05:40:17 51°23.115 2°54.015 7.5 303 11.3 101740 38
2012-05-31 05:40:22 51°23.131 2°54.015 7.6 255 11.3 101730 37
2012-05-31 05:40:27 51°23.148 2°54.016 8.7 309 11.3 101730 37
2012-05-31 05:40:32 51°23.164 2°54.016 7.6 256 11.3 101740 37
2012-05-31 05:40:37 51°23.18 2°54.015 9 254 11.3 101740 37
2012-05-31 05:40:42 51°23.196 2°54.016 7.9 256 11.3 101750 37
2012-05-31 05:40:47 51°23.213 2°54.015 8 308 11.3 101750 37
2012-05-31 05:40:52 51°23.229 2°54.015 8.2 255 11.3 101740 37
2012-05-31 05:40:57 51°23.246 2°54.014 8.6 279 11.3 101740 37
2012-05-31 05:41:02 51°23.262 2°54.015 9.1 22 11.3 101720 37
2012-05-31 05:41:07 51°23.278 2°54.014 8.5 302 11.3 101720 37
2012-05-31 05:41:12 51°23.294 2°54.013 10.1 251 11.3 101730 38
2012-05-31 05:41:17 51°23.311 2°54.013 8.9 307 11.3 101730 38
2012-05-31 05:41:22 51°23.327 2°54.013 9.4 253 11.3 101730 37
2012-05-31 05:41:27 51°23.343 2°54.012 9.4 307 11.3 101730 37
2012-05-31 05:41:32 51°23.36 2°54.014 8.4 250 11.3 101730 38
2012-05-31 05:41:37 51°23.376 2°54.013 9.4 303 11.3 101730 38
2012-05-31 05:41:42 51°23.392 2°54.012 9.9 250 11.3 101720 36
2012-05-31 05:41:47 51°23.409 2°54.011 10.1 256 11.3 101720 36
2012-05-31 05:41:52 51°23.425 2°54.011 10.1 255 11.3 101730 37
2012-05-31 05:41:57 51°23.442 2°54.011 11.3 304 11.3 101730 37
2012-05-31 05:42:02 51°23.458 2°54.011 7.3 255 11.3 101730 37
2012-05-31 05:42:07 51°23.474 2°54.009 8.8 304 11.3 101730 37
2012-05-31 05:42:12 51°23.491 2°54.009 9.9 253 11.3 101730 37
2012-05-31 05:42:17 51°23.507 2°54.007 9.9 309 11.3 101730 37
2012-05-31 05:42:22 51°23.523 2°54.007 10 256 11.3 101740 37
2012-05-31 05:42:27 51°23.54 2°54.006 8.9 304 11.3 101740 37
2012-05-31 05:42:32 51°23.556 2°54.005 9.9 254 11.3 101740 37
2012-05-31 05:42:37 51°23.573 2°54.005 9.4 256 11.3 101740 37
2012-05-31 05:42:42 51°23.59 2°54.004 7.9 254 11.2 101730 37
2012-05-31 05:42:47 51°23.606 2°54.002 7.6 308 11.2 101730 37
2012-05-31 05:42:52 51°23.622 2°54.003 7.3 255 11.2 101740 37
2012-05-31 05:42:57 51°23.639 2°53.999 7.5 281 11.2 101740 37
2012-05-31 05:43:02 51°23.655 2°54 10.5 254 11.2 101740 37
2012-05-31 05:43:07 51°23.671 2°53.997 8.7 308 11.2 101740 37
2012-05-31 05:43:12 51°23.688 2°53.998 8.9 249 11.2 101740 37
2012-05-31 05:43:17 51°23.704 2°53.996 9.5 308 11.2 101740 37
2012-05-31 05:43:22 51°23.721 2°53.995 9.3 20 11.3 101740 37
2012-05-31 05:43:27 51°23.738 2°53.994 8.4 304 11.3 101740 37
2012-05-31 05:43:32 51°23.754 2°53.994 10.2 250 11.2 101740 37
2012-05-31 05:43:37 51°23.771 2°53.993 9.9 303 11.2 101740 37
2012-05-31 05:43:42 51°23.787 2°53.995 9.8 251 11.3 101730 37
2012-05-31 05:43:47 51°23.804 2°53.993 7.9 253 11.3 101730 37
2012-05-31 05:43:52 51°23.82 2°53.995 8.1 248 11.2 101730 38
2012-05-31 05:43:57 51°23.837 2°53.993 8.2 305 11.2 101730 38
2012-05-31 05:44:02 51°23.853 2°53.993 9.3 252 11.2 101730 37
2012-05-31 05:44:07 51°23.869 2°53.993 11.1 304 11.2 101730 37
2012-05-31 05:44:12 51°23.886 2°53.993 10.4 255 11.3 101730 37
2012-05-31 05:44:17 51°23.902 2°53.991 8.2 304 11.3 101730 37
2012-05-31 05:44:22 51°23.919 2°53.991 10.9 255 11.2 101730 35
2012-05-31 05:44:27 51°23.935 2°53.992 11.1 303 11.2 101730 35
2012-05-31 05:44:32 51°23.952 2°53.991 9 253 11.2 101730 37
2012-05-31 05:44:37 51°23.968 2°53.992 10.7 307 11.2 101730 37
2012-05-31 05:44:42 51°23.985 2°53.991 9 254 11.2 101740 37
2012-05-31 05:44:47 51°24.001 2°53.992 9.1 304 11.2 101740 37
2012-05-31 05:44:52 51°24.018 2°53.992 10.5 255 11.2 101730 37
2012-05-31 05:44:57 51°24.034 2°53.992 8.1 255 11.2 101730 37
2012-05-31 05:45:02 51°24.051 2°53.994 11 256 11.2 101730 37
2012-05-31 05:45:07 51°24.067 2°53.994 8.5 310 11.2 101730 37
2012-05-31 05:45:12 51°24.084 2°53.992 8.7 256 11.2 101750 37
2012-05-31 05:45:17 51°24.1 2°53.993 11 257 11.2 101750 37
2012-05-31 05:45:22 51°24.116 2°53.993 9.9 255 11.2 101740 37
2012-05-31 05:45:27 51°24.133 2°53.993 7.8 309 11.2 101740 37
2012-05-31 05:45:32 51°24.15 2°53.992 9.2 256 11.2 101740 37
2012-05-31 05:45:37 51°24.166 2°53.993 8 247 11.2 101740 37
2012-05-31 05:45:42 51°24.183 2°53.992 7.6 255 11.2 101740 37
2012-05-31 05:45:47 51°24.2 2°53.992 8.7 250 11.2 101740 37
2012-05-31 05:45:52 51°24.216 2°53.992 9.1 253 11.2 101740 36
2012-05-31 05:45:57 51°24.233 2°53.99 9.1 258 11.2 101740 36
2012-05-31 05:46:02 51°24.249 2°53.991 8.8 254 11.2 101740 37
2012-05-31 05:46:07 51°24.266 2°53.99 9.3 257 11.2 101740 37
2012-05-31 05:46:12 51°24.282 2°53.99 10.8 255 11.2 101740 37
2012-05-31 05:46:17 51°24.299 2°53.991 10.1 252 11.2 101740 37
2012-05-31 05:46:22 51°24.316 2°53.991 7.5 251 11.2 101740 36
2012-05-31 05:46:27 51°24.332 2°53.991 8 248 11.2 101740 36
2012-05-31 05:46:32 51°24.349 2°53.991 7.8 20 11.2 101730 36
2012-05-31 05:46:37 51°24.365 2°53.991 10.4 255 11.2 101730 36
2012-05-31 05:46:42 51°24.382 2°53.991 8.6 255 11.2 101740 37
2012-05-31 05:46:47 51°24.398 2°53.991 11.2 256 11.2 101740 37
2012-05-31 05:46:52 51°24.415 2°53.993 9.6 256 11.2 101730 37
2012-05-31 05:46:57 51°24.431 2°53.991 7.2 256 11.2 101730 37
2012-05-31 05:47:02 51°24.447 2°53.993 8.5 252 11.2 101720 37
2012-05-31 05:47:07 51°24.464 2°53.993 8.5 248 11.2 101720 37
2012-05-31 05:47:12 51°24.48 2°53.994 8.7 256 11.2 101730 37
2012-05-31 05:47:17 51°24.496 2°53.992 8.9 256 11.2 101730 37
2012-05-31 05:47:22 51°24.512 2°53.992 9.3 256 11.2 101730 37
2012-05-31 05:47:27 51°24.528 2°53.992 10.6 255 11.2 101730 37
2012-05-31 05:47:32 51°24.545 2°53.991 10.9 255 11.1 101730 37
2012-05-31 05:47:37 51°24.561 2°53.991 7.9 251 11.1 101730 37
2012-05-31 05:47:42 51°24.577 2°53.989 9.3 250 11.1 101730 37
2012-05-31 05:47:47 51°24.593 2°53.989 9.5 248 11.1 101730 37
2012-05-31 05:47:52 51°24.609 2°53.989 10 252 11.1 101740 37
2012-05-31 05:47:57 51°24.625 2°53.989 9.4 254 11.1 101740 37
2012-05-31 05:48:02 51°24.642 2°53.989 9.9 254 11.2 101730 37
2012-05-31 05:48:07 51°24.658 2°53.988 8.7 249 11.2 101730 37
2012-05-31 05:48:12 51°24.674 2°53.987 9.1 253 11.1 101740 37
2012-05-31 05:48:17 51°24.69 2°53.987 11.1 257 11.1 101740 37
2012-05-31 05:48:22 51°24.706 2°53.985 11.4 256 11.1 101740 37
2012-05-31 05:48:27 51°24.723 2°53.985 9.9 251 11.1 101740 37
2012-05-31 05:48:32 51°24.739 2°53.984 9 251 11.2 101720 37
2012-05-31 05:48:37 51°24.755 2°53.984 8.5 253 11.2 101720 37
2012-05-31 05:48:42 51°24.771 2°53.983 10.8 251 11.1 101720 37
2012-05-31 05:48:47 51°24.787 2°53.982 10 251 11.1 101720 37
2012-05-31 05:48:52 51°24.804 2°53.983 8 254 11.1 101740 36
2012-05-31 05:48:57 51°24.82 2°53.982 8.4 254 11.1 101740 36
2012-05-31 05:49:02 51°24.836 2°53.983 9.6 251 11.1 101730 37
2012-05-31 05:49:07 51°24.852 2°53.981 7.9 252 11.1 101730 37
2012-05-31 05:49:12 51°24.868 2°53.982 8.9 20 11.1 101730 35
2012-05-31 05:49:17 51°24.884 2°53.98 7.7 251 11.1 101730 35
2012-05-31 05:49:22 51°24.9 2°53.981 8.3 248 11.1 101720 37
2012-05-31 05:49:27 51°24.916 2°53.978 9 250 11.1 101720 37
2012-05-31 05:49:32 51°24.933 2°53.98 9 250 11.1 101720 37
2012-05-31 05:49:37 51°24.948 2°53.976 8.6 253 11.1 101720 37
2012-05-31 05:49:42 51°24.965 2°53.978 8.6 254 11.1 101740 36
2012-05-31 05:49:47 51°24.981 2°53.976 12 257 11.1 101740 36
2012-05-31 05:49:52 51°24.997 2°53.976 9.2 257 11.1 101720 37
2012-05-31 05:49:57 51°25.013 2°53.974 7.2 251 11.1 101720 37
2012-05-31 05:50:02 51°25.03 2°53.977 9.6 254 11.1 101720 37
2012-05-31 05:50:07 51°25.046 2°53.974 7.3 254 11.1 101720 37
2012-05-31 05:50:12 51°25.062 2°53.976 7.7 250 11.1 101730 37
2012-05-31 05:50:17 51°25.077 2°53.972 8 254 11.1 101730 37
2012-05-31 05:50:22 51°25.094 2°53.973 7.9 254 11.1 101740 37
2012-05-31 05:50:27 51°25.11 2°53.97 8.1 256 11.1 101740 37
2012-05-31 05:50:32 51°25.126 2°53.971 8.7 255 11.1 101740 36
2012-05-31 05:50:37 51°25.142 2°53.971 7.9 254 11.1 101740 36
2012-05-31 05:50:42 51°25.158 2°53.969 9.4 256 11.1 101730 37
2012-05-31 05:50:47 51°25.174 2°53.968 10.1 260 11.1 101730 37
2012-05-31 05:50:52 51°25.19 2°53.967 11.5 260 11.1 101720 37
2012-05-31 05:50:57 51°25.206 2°53.968 9.3 254 11.1 101720 37
2012-05-31 05:51:02 51°25.223 2°53.965 8.7 255 11.1 101740 37
2012-05-31 05:51:07 51°25.239 2°53.966 8.4 252 11.1 101740 37
2012-05-31 05:51:12 51°25.255 2°53.964 9.4 252 11.1 101740 37
2012-05-31 05:51:17 51°25.271 2°53.965 7.3 252 11.1 101740 37
2012-05-31 05:51:22 51°25.288 2°53.963 10.2 258 11.1 101730 36
2012-05-31 05:51:27 51°25.304 2°53.965 8.4 245 11.1 101730 36
2012-05-31 05:51:31 51°25.317 2°53.964 6.9 250 11.1 101730 37
2012-05-31 05:51:37 51°25.336 2°53.964 9 245 11.1 101730 37
2012-05-31 05:51:42 51°25.352 2°53.967 7.8 251 11.1 101740 37
2012-05-31 05:51:47 51°25.368 2°53.965 8.9 251 11.1 101740 37
2012-05-31 05:51:52 51°25.384 2°53.967 7.7 248 11.1 101730 36
2012-05-31 05:51:57 51°25.4 2°53.964 7 252 11.1 101730 36
2012-05-31 05:52:02 51°25.416 2°53.966 9.9 254 11.1 101730 37
2012-05-31 05:52:07 51°25.432 2°53.966 7.8 250 11.1 101730 37
2012-05-31 05:52:12 51°25.448 2°53.964 10.8 251 11.1 101730 37
2012-05-31 05:52:17 51°25.464 2°53.965 10.2 253 11.1 101730 37
2012-05-31 05:52:22 51°25.48 2°53.963 10.3 251 11.1 101720 37
2012-05-31 05:52:27 51°25.496 2°53.96 8.7 250 11.1 101720 37
2012-05-31 05:52:32 51°25.512 2°53.96 9.8 252 11.1 101730 37
2012-05-31 05:52:37 51°25.528 2°53.958 9.7 252 11.1 101730 37
2012-05-31 05:52:42 51°25.544 2°53.955 8.8 254 11.1 101730 37
2012-05-31 05:52:47 51°25.56 2°53.953 10.1 254 11.1 101730 37
2012-05-31 05:52:52 51°25.576 2°53.949 8.3 252 11.1 101730 37
2012-05-31 05:52:57 51°25.592 2°53.946 10.2 257 11.1 101730 37
2012-05-31 05:53:02 51°25.608 2°53.943 8.5 250 11.1 101730 37
2012-05-31 05:53:07 51°25.624 2°53.94 8.3 253 11.1 101730 37
2012-05-31 05:53:12 51°25.64 2°53.938 8.3 251 11.1 101720 37
2012-05-31 05:53:17 51°25.656 2°53.934 6.5 249 11.1 101720 37
2012-05-31 05:53:22 51°25.673 2°53.932 8.6 19 11.1 101720 36
2012-05-31 05:53:27 51°25.688 2°53.928 9.3 251 11.1 101720 36
2012-05-31 05:53:31 51°25.701 2°53.926 9.6 249 11.1 101730 36
2012-05-31 05:53:37 51°25.72 2°53.922 7.4 252 11.1 101730 36
2012-05-31 05:53:42 51°25.737 2°53.92 8.8 251 11 101740 37
2012-05-31 05:53:47 51°25.753 2°53.917 7.5 243 11 101740 37
2012-05-31 05:53:51 51°25.766 2°53.916 9.3 21 11.1 101710 37
2012-05-31 05:53:57 51°25.785 2°53.911 8.8 249 11.1 101710 37
2012-05-31 05:54:02 51°25.801 2°53.91 8.1 23 11 101730 37
2012-05-31 05:54:07 51°25.817 2°53.907 9.9 249 11 101730 37
2012-05-31 05:54:12 51°25.834 2°53.905 7.9 251 11 101730 36
2012-05-31 05:54:17 51°25.85 2°53.901 8.3 248 11 101730 36
2012-05-31 05:54:22 51°25.866 2°53.901 8.6 251 11 101720 36
2012-05-31 05:54:27 51°25.882 2°53.898 10.4 247 11 101720 36
2012-05-31 05:54:32 51°25.898 2°53.894 13.1 250 11.1 101710 36
2012-05-31 05:54:37 51°25.914 2°53.889 8.7 250 11.1 101710 36
2012-05-31 05:54:42 51°25.93 2°53.886 8.4 24 11 101730 37
2012-05-31 05:54:47 51°25.946 2°53.882 8.8 252 11 101730 37
2012-05-31 05:54:52 51°25.962 2°53.878 9.3 248 11 101730 37
2012-05-31 05:54:57 51°25.978 2°53.876 10 251 11 101730 37
2012-05-31 05:55:02 51°25.994 2°53.872 10.6 254 11 101740 37
2012-05-31 05:55:07 51°26.011 2°53.87 9.5 250 11 101740 37
2012-05-31 05:55:12 51°26.027 2°53.867 9 250 11 101730 37
2012-05-31 05:55:17 51°26.043 2°53.864 9.3 249 11 101730 37
2012-05-31 05:55:22 51°26.06 2°53.86 10.7 251 11 101720 37
2012-05-31 05:55:27 51°26.076 2°53.856 9.8 249 11 101720 37
2012-05-31 05:55:32 51°26.092 2°53.853 9.6 249 11 101730 37
2012-05-31 05:55:37 51°26.109 2°53.85 9.3 249 11 101730 37
2012-05-31 05:55:42 51°26.125 2°53.847 8.7 248 11 101730 37
2012-05-31 05:55:47 51°26.141 2°53.844 8.6 254 11 101730 37
2012-05-31 05:55:51 51°26.154 2°53.842 9.8 248 11 101730 37
2012-05-31 05:55:57 51°26.174 2°53.84 8.7 253 11 101730 37
2012-05-31 05:56:02 51°26.191 2°53.836 10 253 11 101730 37
2012-05-31 05:56:07 51°26.207 2°53.835 7.7 254 11 101730 37
2012-05-31 05:56:12 51°26.223 2°53.831 9.7 252 11 101740 37
2012-05-31 05:56:17 51°26.24 2°53.829 11 249 11 101740 37
2012-05-31 05:56:22 51°26.256 2°53.825 7.7 20 11 101730 37
2012-05-31 05:56:27 51°26.272 2°53.821 9.5 251 11 101730 37
2012-05-31 05:56:32 51°26.289 2°53.817 9 251 11 101740 37
2012-05-31 05:56:37 51°26.306 2°53.814 9.4 250 11 101740 37
2012-05-31 05:56:42 51°26.322 2°53.81 11.4 252 11 101730 37
2012-05-31 05:56:47 51°26.339 2°53.807 10.2 251 11 101730 37
2012-05-31 05:56:52 51°26.355 2°53.804 10.9 251 11 101720 37
2012-05-31 05:56:57 51°26.372 2°53.802 10.9 249 11 101720 37
2012-05-31 05:57:02 51°26.388 2°53.796 10.5 18 11 101720 37
2012-05-31 05:57:07 51°26.405 2°53.795 11.4 251 11 101720 37
2012-05-31 05:57:12 51°26.421 2°53.789 9.4 249 11 101730 35
2012-05-31 05:57:17 51°26.438 2°53.786 9.8 252 11 101730 35
2012-05-31 05:57:22 51°26.454 2°53.781 10.7 248 11 101720 37
2012-05-31 05:57:27 51°26.471 2°53.778 9 246 11 101720 37
2012-05-31 05:57:32 51°26.487 2°53.772 8.1 20 11 101730 37
2012-05-31 05:57:37 51°26.503 2°53.767 10.2 246 11 101730 37
2012-05-31 05:57:42 51°26.52 2°53.762 10.1 24 11 101730 37
2012-05-31 05:57:47 51°26.536 2°53.757 8.3 244 11 101730 37
2012-05-31 05:57:52 51°26.553 2°53.752 9.5 247 11 101720 37
2012-05-31 05:57:57 51°26.569 2°53.748 9.9 246 11 101720 37
2012-05-31 05:58:02 51°26.585 2°53.742 9.3 247 11 101710 36
2012-05-31 05:58:07 51°26.602 2°53.737 8.7 250 11 101710 36
2012-05-31 05:58:12 51°26.619 2°53.733 9.1 250 11 101720 37
2012-05-31 05:58:17 51°26.634 2°53.728 10.5 243 11 101720 37
2012-05-31 05:58:22 51°26.651 2°53.722 12.1 20 11 101720 37
2012-05-31 05:58:27 51°26.667 2°53.716 10.1 244 11 101720 37
2012-05-31 05:58:32 51°26.684 2°53.711 10.3 248 11 101730 36
2012-05-31 05:58:37 51°26.7 2°53.705 5.4 247 11 101730 36
2012-05-31 05:58:42 51°26.717 2°53.698 10.2 21 11 101720 37
2012-05-31 05:58:47 51°26.733 2°53.694 11 246 11 101720 37
2012-05-31 05:58:52 51°26.749 2°53.687 10.6 248 11 101700 36
2012-05-31 05:58:57 51°26.765 2°53.681 11 247 11 101700 36
2012-05-31 05:59:02 51°26.782 2°53.675 9.5 247 11 101710 37
2012-05-31 05:59:07 51°26.798 2°53.669 9.5 245 11 101710 37
2012-05-31 05:59:12 51°26.814 2°53.665 9.8 24 11 101720 37
2012-05-31 05:59:17 51°26.831 2°53.659 8.3 247 11 101720 37
2012-05-31 05:59:22 51°26.847 2°53.655 8.8 248 10.9 101720 37
2012-05-31 05:59:27 51°26.863 2°53.65 5.4 250 10.9 101720 37
2012-05-31 05:59:32 51°26.88 2°53.646 10.4 248 10.9 101710 37
2012-05-31 05:59:37 51°26.896 2°53.642 5.4 251 10.9 101710 37
2012-05-31 05:59:42 51°26.912 2°53.636 10.6 250 10.9 101720 37
2012-05-31 05:59:47 51°26.928 2°53.632 10.2 247 10.9 101720 37
2012-05-31 05:59:52 51°26.944 2°53.627 5.7 251 10.9 101720 35
2012-05-31 05:59:57 51°26.961 2°53.622 9.8 249 10.9 101720 35
2012-05-31 06:00:02 51°26.977 2°53.619 9.5 21 10.9 101730 37
2012-05-31 06:00:07 51°26.993 2°53.612 12.5 247 10.9 101730 37
2012-05-31 06:00:12 51°27.009 2°53.607 12.1 24 10.9 101710 37
2012-05-31 06:00:17 51°27.025 2°53.601 10.5 247 10.9 101710 37
2012-05-31 06:00:22 51°27.041 2°53.596 8 22 10.9 101720 37
2012-05-31 06:00:27 51°27.057 2°53.59 8.9 248 10.9 101720 37
2012-05-31 06:00:32 51°27.074 2°53.586 11.7 19 10.9 101710 37
2012-05-31 06:00:37 51°27.09 2°53.58 9.2 245 10.9 101710 37
2012-05-31 06:00:42 51°27.106 2°53.576 10 22 10.8 101720 37
2012-05-31 06:00:47 51°27.122 2°53.571 8.3 245 10.8 101720 37